Location: Ashton River Estates
(39.1762°N, 77.0261°W)
Time: 23:30:26
(UTC+00:00)

Cosmos 1825 - Pass Details

Date: 29 October 2020
Orbit: 501 x 508 km, 82.5° (Epoch: 03 December)

Event Time Altitude Azimuth Distance (km) Brightness Sun altitude
Rises 23:31:00 0° 360° (N) 2,620 5.7 -16.2°
Reaches altitude 10° 23:33:14 10° 8° (N) 1,728 4.7 -16.7°
Enters shadow 23:36:41 40° 73° (ENE) 759 2.5 -17.3°
